[[{"header":{"parameterUnit":"m.s-1","parameterCategory":1,"la1":30.2991,"la2":30.254,"lo1":-89.0895,"lo2":-89.0444,"dy":0.0017,"dx":0.0017,"nx":28,"ny":28,"refTime":"2025-05-18T09:00:00:Z","depth":0,"parameterNumber":2,"parameterNumberName":"U-component_of_WINDS"},"data":[0,0,0,0,0,0,0,0,0,0,0,0,0,0,0,0,0,0,0,0,0,0,0,0,0,0,0,0,0,0,0,0,0,0,0,0,0,0,0,0,0,0,0,0,0,0,0,0,0,0,0,0,0,0,0,0,0,0,-0.6792,-0.6792,0,-0.6745,-0.6744,-0.6744,-0.6713,-0.6713,-0.6713,-0.6712,-0.6666,-0.6665,-0.6664,0,0,0,0,0,0,0,0,0,0,0,0,0,-0.686,-0.6859,-0.6792,-0.6792,-0.6791,-0.6745,-0.6744,-0.6744,-0.6713,-0.6713,-0.6713,-0.6712,-0.6667,-0.6665,-0.6664,0,0,0,0,0,0,0,0,0,0,0,0,0,-0.6824,-0.6859,-0.6792,-0.677,-0.6768,-0.6745,-0.6744,-0.6743,-0.6713,-0.6713,-0.6713,-0.6712,-0.6667,-0.6666,-0.6664,-0.666,0,0,-0.6659,-0.6659,0,0,0,0,0,0,0,0,-0.6826,-0.6821,-0.6774,-0.6772,-0.6769,-0.6734,-0.6751,-0.6716,-0.6713,-0.6734,-0.6712,-0.6712,-0.6689,-0.6686,-0.6678,-0.6658,-0.6656,-0.6659,-0.6658,-0.6657,-0.6657,0,0,0,0,0,0,0,-0.6828,-0.6823,-0.6774,-0.6774,-0.677,-0.6764,-0.6758,-0.6744,-0.6714,-0.6732,-0.673,-0.6724,-0.6688,-0.6679,-0.6677,-0.6655,-0.6659,-0.6658,-0.6657,-0.6656,-0.6631,-0.6631,0,0,0,0,0,0,-0.6834,-0.6825,-0.6775,-0.6772,-0.6797,-0.6763,-0.6757,-0.6746,-0.6714,-0.6709,-0.6725,-0.6723,-0.6682,-0.6678,-0.6675,-0.6668,-0.6658,-0.6656,-0.6655,-0.6631,-0.6631,-0.6631,0,0,0,0,0,0,-0.6835,-0.683,-0.6777,-0.6798,-0.6791,-0.6762,-0.675,-0.6745,-0.6736,-0.6708,-0.6703,-0.6721,-0.6682,-0.6677,-0.6664,-0.6666,-0.6655,-0.6654,-0.663,-0.6631,-0.6631,-0.6655,0,0,0,0,0,0,-0.6838,-0.683,-0.6828,-0.6798,-0.679,-0.6766,-0.675,-0.6744,-0.6733,-0.6731,-0.6704,-0.6699,-0.6681,-0.6667,-0.6662,-0.6664,-0.6653,-0.663,-0.663,-0.6631,-0.6654,-0.6657,-0.6659,0,0,0,0,0,-0.684,-0.6837,-0.6828,-0.6822,-0.6786,-0.6766,-0.6762,-0.674,-0.6734,-0.6731,-0.6714,-0.67,-0.6667,-0.6665,-0.6661,-0.6662,-0.663,-0.663,-0.6631,-0.6653,-0.6656,-0.6659,0,0,0,0,0,0,-0.6869,-0.6833,-0.6822,-0.6809,-0.6791,-0.6761,-0.6757,-0.6744,-0.6728,-0.6726,-0.6702,-0.6696,-0.6686,-0.6672,-0.6671,-0.6657,-0.6647,-0.6646,-0.6665,-0.6668,-0.667,-0.6673,-0.6651,0,0,0,0,0,-0.6873,-0.6859,-0.6829,-0.6821,-0.6812,-0.6787,-0.6777,-0.6763,-0.6743,-0.6735,-0.6716,-0.6699,-0.6684,-0.6676,-0.6661,-0.6652,-0.6646,-0.6651,-0.6653,-0.6655,-0.6655,-0.665,-0.6652,-0.6633,-0.6633,-0.6633,0,0,-0.6883,-0.6862,-0.6855,-0.6826,-0.681,-0.6797,-0.678,-0.6767,-0.6758,-0.6734,-0.672,-0.6706,-0.6685,-0.6674,-0.6668,-0.6663,-0.6659,-0.6656,-0.6658,-0.6656,-0.6651,-0.6653,-0.6654,-0.6634,-0.6634,-0.6633,0,0,-0.6894,-0.6876,-0.6867,-0.6852,-0.6828,-0.6811,-0.6809,-0.6781,-0.677,-0.6756,-0.6738,-0.6727,-0.6703,-0.6688,-0.6678,-0.6684,-0.6671,-0.668,-0.6692,-0.6687,-0.6689,-0.669,-0.6693,-0.6694,-0.6681,-0.6681,-0.6681,0,-0.6909,-0.6888,-0.6865,-0.6853,-0.6841,-0.6818,-0.681,-0.6796,-0.6769,-0.6762,-0.6756,-0.6725,-0.6709,-0.6695,-0.6697,-0.6689,-0.6687,-0.6683,-0.669,-0.6691,-0.6692,-0.6694,-0.6695,-0.6682,-0.6682,-0.6682,-0.6682,0,-0.6908,-0.6894,-0.689,-0.6863,-0.6852,-0.6842,-0.6818,-0.6809,-0.6795,-0.678,-0.6766,-0.6746,-0.6727,-0.6723,-0.671,-0.6707,-0.6704,-0.6695,-0.6684,-0.6695,-0.6697,-0.6698,-0.6684,-0.6683,-0.6683,-0.6683,0,0,-0.6936,-0.6896,-0.6895,-0.6883,-0.6855,-0.6844,-0.6834,-0.6814,-0.6807,-0.679,-0.6781,-0.6761,-0.6752,-0.674,-0.6725,-0.6722,-0.6729,-0.6712,-0.6711,-0.6716,-0.6725,-0.6732,-0.6734,-0.672,-0.672,-0.672,-0.6727,0,-0.6943,-0.6921,-0.69,-0.6886,-0.6873,-0.6852,-0.6843,-0.6825,-0.681,-0.6798,-0.6782,-0.6769,-0.6757,-0.675,-0.6746,-0.6729,-0.673,-0.6728,-0.6712,-0.6712,-0.6718,-0.6734,-0.6742,-0.6749,-0.6727,-0.6727,-0.6727,0,-0.6947,-0.693,-0.6915,-0.6888,-0.6882,-0.6874,-0.6855,-0.6843,-0.6823,-0.6813,-0.68,-0.6785,-0.6774,-0.6765,-0.675,-0.6749,-0.6741,-0.6732,-0.6732,-0.673,-0.672,-0.6733,-0.6751,-0.6752,-0.6728,-0.6728,-0.6728,0,-0.6969,-0.6942,-0.6929,-0.6919,-0.6888,-0.6883,-0.687,-0.685,-0.684,-0.6824,-0.6817,-0.68,-0.6791,-0.6779,-0.676,-0.6755,-0.6747,-0.6736,-0.6739,-0.6739,-0.6738,-0.6738,-0.6755,-0.6733,-0.6733,-0.6733,-0.6733,0,-0.6979,-0.697,-0.6938,-0.693,-0.6921,-0.6898,-0.6889,-0.6874,-0.6857,-0.6847,-0.6828,-0.6819,-0.6794,-0.6783,-0.6768,-0.6758,-0.6754,-0.6746,-0.6742,-0.6747,-0.6748,-0.6742,-0.6741,-0.6733,-0.6733,-0.6733,-0.6733,0,-0.7001,-0.6979,-0.6964,-0.6935,-0.6928,-0.6922,-0.6899,-0.6891,-0.6875,-0.6863,-0.6859,-0.6834,-0.682,-0.68,-0.678,-0.677,-0.6762,-0.6756,-0.6768,-0.6766,-0.6769,-0.6769,-0.6783,-0.6784,-0.6761,-0.6762,-0.6762,0,-0.7008,-0.7001,-0.6972,-0.6963,-0.6951,-0.6937,-0.6927,-0.6904,-0.6894,-0.6871,-0.6867,-0.6851,-0.6836,-0.6815,-0.6796,-0.6781,-0.6774,-0.678,-0.6772,-0.6777,-0.6774,-0.6775,-0.6774,-0.6782,-0.6782,-0.6782,-0.6783,0,-0.7024,-0.7014,-0.6999,-0.698,-0.6967,-0.6952,-0.6936,-0.693,-0.6904,-0.6894,-0.6879,-0.6868,-0.6847,-0.6831,-0.6814,-0.6801,-0.6788,-0.6785,-0.6785,-0.679,-0.6798,-0.6794,-0.6774,-0.6785,-0.6785,-0.6785,-0.6785,-0.6784,-0.7039,-0.7032,-0.701,-0.6994,-0.698,-0.6965,-0.6956,-0.6939,-0.6926,-0.6906,-0.6894,-0.6879,-0.6861,-0.6835,-0.6824,-0.6813,-0.6807,-0.6807,-0.6807,-0.6807,-0.6809,-0.68,-0.6809,-0.6809,-0.6809,-0.6809,-0.6809,0,-0.7054,-0.7039,-0.7025,-0.7002,-0.699,-0.6977,-0.6959,-0.695,-0.6936,-0.692,-0.6906,-0.6889,-0.6874,-0.6854,-0.6838,-0.6833,-0.6827,-0.683,-0.683,-0.6828,-0.6815,-0.6816,-0.6835,-0.6835,-0.6835,-0.6835,-0.6835,-0.6835,-0.7061,-0.7048,-0.7035,-0.7015,-0.7,-0.6985,-0.6975,-0.6962,-0.6949,-0.693,-0.6917,-0.6904,-0.6886,-0.6869,-0.6855,-0.685,-0.6845,-0.685,-0.6843,-0.6831,-0.6828,-0.6826,-0.6828,-0.6849,-0.6849,-0.6856,-0.6857,-0.6857]},{"header":{"parameterUnit":"m.s-1","parameterCategory":1,"la1":30.2991,"la2":30.254,"lo1":-89.0895,"lo2":-89.0444,"dy":0.0017,"dx":0.0017,"nx":28,"ny":28,"refTime":"2025-05-18T09:00:00:Z","depth":0,"parameterNumber":3,"parameterNumberName":"V-component_of_WINDS"},"data":[0,0,0,0,0,0,0,0,0,0,0,0,0,0,0,0,0,0,0,0,0,0,0,0,0,0,0,0,0,0,0,0,0,0,0,0,0,0,0,0,0,0,0,0,0,0,0,0,0,0,0,0,0,0,0,0,0,0,3.292,3.292,0,3.2905,3.2905,3.2904,3.2842,3.2841,3.2839,3.2838,3.2824,3.2824,3.2825,0,0,0,0,0,0,0,0,0,0,0,0,0,3.2897,3.2898,3.292,3.292,3.292,3.2905,3.2905,3.2904,3.2842,3.284,3.2839,3.2837,3.2823,3.2824,3.2825,0,0,0,0,0,0,0,0,0,0,0,0,0,3.2897,3.2898,3.292,3.2887,3.2884,3.2905,3.2905,3.2904,3.2843,3.284,3.2838,3.2836,3.2823,3.2824,3.2826,3.2878,0,0,3.283,3.2831,0,0,0,0,0,0,0,0,3.2897,3.2898,3.2892,3.2889,3.2886,3.2873,3.2891,3.2896,3.2843,3.2858,3.2838,3.2835,3.2842,3.2842,3.2844,3.2877,3.2877,3.283,3.2831,3.2832,3.2832,0,0,0,0,0,0,0,3.2897,3.2898,3.2914,3.2892,3.2888,3.2873,3.2871,3.2892,3.2863,3.2857,3.2852,3.2851,3.284,3.2842,3.2843,3.2877,3.283,3.2831,3.2832,3.2833,3.2952,3.2955,0,0,0,0,0,0,3.2902,3.2899,3.2915,3.2914,3.2886,3.2875,3.2873,3.2879,3.2862,3.2857,3.2853,3.2848,3.2841,3.2841,3.2842,3.2902,3.2832,3.2833,3.2834,3.295,3.2953,3.2955,0,0,0,0,0,0,3.2902,3.2904,3.2915,3.2905,3.2905,3.2878,3.2886,3.288,3.2883,3.2859,3.2854,3.2861,3.2839,3.284,3.2869,3.2901,3.2834,3.2835,3.2947,3.2951,3.2954,3.3023,0,0,0,0,0,0,3.2901,3.2904,3.2923,3.2906,3.2906,3.2943,3.2888,3.2881,3.2885,3.2879,3.2865,3.2861,3.2838,3.2868,3.2871,3.2901,3.2836,3.2944,3.2949,3.2953,3.3017,3.3028,3.3037,0,0,0,0,0,3.29,3.2944,3.2925,3.2927,3.293,3.2945,3.2945,3.2917,3.2888,3.2907,3.2892,3.2861,3.2897,3.2871,3.2874,3.2906,3.2942,3.2948,3.2953,3.3013,3.3026,3.3037,0,0,0,0,0,0,3.2966,3.2941,3.2919,3.2958,3.2954,3.2934,3.2958,3.2931,3.2935,3.2929,3.2895,3.2892,3.2927,3.2919,3.2891,3.2955,3.2914,3.292,3.2959,3.2971,3.2981,3.2982,3.2837,0,0,0,0,0,3.2985,3.2999,3.2976,3.3013,3.3012,3.2985,3.2991,3.2969,3.2964,3.2962,3.2949,3.2945,3.2955,3.2963,3.2971,3.3016,3.3012,3.3039,3.3049,3.3057,3.3063,3.3086,3.3098,3.2972,3.2972,3.2972,0,0,3.3025,3.3012,3.3023,3.3026,3.302,3.3035,3.2984,3.3003,3.3014,3.2965,3.2991,3.2982,3.2976,3.3013,3.3029,3.3008,3.3097,3.3064,3.307,3.3072,3.3093,3.3105,3.3115,3.2976,3.2975,3.2975,0,0,3.3104,3.3097,3.3126,3.3121,3.3113,3.3095,3.3102,3.3086,3.3077,3.3104,3.3067,3.308,3.3098,3.3095,3.3096,3.3175,3.3146,3.3178,3.3229,3.3252,3.3262,3.3271,3.3299,3.3309,3.3184,3.3184,3.3184,0,3.3155,3.3176,3.3144,3.3165,3.3167,3.3123,3.3152,3.3149,3.3145,3.3147,3.3123,3.3145,3.3138,3.3174,3.3193,3.3195,3.3202,3.318,3.3263,3.3272,3.3279,3.3305,3.3316,3.3188,3.3188,3.3187,3.3187,0,3.3238,3.3254,3.3278,3.3274,3.3279,3.3304,3.3277,3.3286,3.3264,3.3249,3.3276,3.3265,3.327,3.3277,3.3257,3.3311,3.3298,3.3269,3.3227,3.3296,3.332,3.333,3.3194,3.3192,3.3191,3.319,0,0,3.3359,3.3337,3.3346,3.3344,3.3331,3.3343,3.3366,3.337,3.3379,3.3377,3.3396,3.3412,3.3385,3.3386,3.3365,3.3385,3.3448,3.3354,3.3353,3.3372,3.3507,3.3529,3.3541,3.3429,3.3431,3.3432,3.3507,0,3.3435,3.3473,3.3445,3.3488,3.3502,3.346,3.348,3.3475,3.3461,3.3472,3.3457,3.3469,3.3433,3.3433,3.3451,3.3436,3.3475,3.3431,3.3447,3.3448,3.345,3.3553,3.3576,3.3648,3.3517,3.3518,3.3519,0,3.3529,3.3531,3.3575,3.3559,3.3564,3.3582,3.3584,3.3594,3.3587,3.3576,3.3577,3.355,3.3572,3.3531,3.3561,3.3532,3.3537,3.3531,3.3533,3.3533,3.3488,3.3557,3.367,3.3681,3.3534,3.3533,3.3532,0,3.3613,3.3626,3.3654,3.3653,3.3635,3.3649,3.3643,3.3634,3.3638,3.364,3.3642,3.3647,3.365,3.3654,3.3629,3.3601,3.3663,3.3619,3.3654,3.3655,3.3669,3.3669,3.3785,3.3673,3.3672,3.3672,3.3672,0,3.3701,3.373,3.3691,3.3709,3.374,3.3707,3.3739,3.3728,3.372,3.3735,3.3699,3.3714,3.368,3.3692,3.3672,3.37,3.3702,3.3694,3.3688,3.3697,3.3698,3.37,3.3694,3.3675,3.3674,3.3674,3.3673,0,3.38,3.3776,3.3803,3.3784,3.378,3.3803,3.3787,3.3802,3.3786,3.3805,3.3808,3.3783,3.3794,3.377,3.3778,3.3765,3.3805,3.3792,3.3807,3.3803,3.384,3.3837,3.3961,3.3976,3.3854,3.3855,3.3856,0,3.3858,3.3879,3.3861,3.3868,3.3863,3.3875,3.3879,3.3848,3.3854,3.3847,3.3864,3.3872,3.3877,3.3898,3.3881,3.3887,3.3873,3.3917,3.3874,3.3882,3.3874,3.3873,3.3875,3.3926,3.3927,3.3928,3.3929,0,3.3963,3.3949,3.3956,3.3959,3.3964,3.3965,3.3964,3.3972,3.3939,3.3947,3.3958,3.3962,3.397,3.3979,3.3981,3.3975,3.3947,3.3943,3.3951,3.396,3.3968,3.3964,3.3831,3.394,3.3939,3.3938,3.3937,3.3937,3.4043,3.4059,3.405,3.4058,3.4054,3.4053,3.4066,3.4051,3.406,3.4063,3.4045,3.406,3.4052,3.4052,3.4049,3.4061,3.4041,3.4053,3.4057,3.406,3.4066,3.3966,3.4061,3.4061,3.406,3.406,3.406,0,3.4146,3.4138,3.4146,3.4144,3.4151,3.4123,3.412,3.4128,3.4141,3.4136,3.4142,3.4154,3.4163,3.4146,3.4152,3.4165,3.4152,3.4167,3.4166,3.4165,3.4083,3.4075,3.4177,3.4177,3.4177,3.4177,3.4177,3.4177,3.4201,3.4227,3.4213,3.4237,3.4228,3.4242,3.4242,3.4241,3.4237,3.4253,3.4259,3.4248,3.4238,3.4243,3.425,3.4245,3.4249,3.4268,3.4259,3.4183,3.4171,3.416,3.4152,3.4269,3.427,3.434,3.4341,3.4341]}]]